TimeIST,TemperatureF,Dew PointF,Humidity,Sea Level PressureIn,VisibilityMPH,Wind Direction,Wind SpeedMPH,Gust SpeedMPH,PrecipitationIn,Events,Conditions,WindDirDegrees,DateUTC
12:00 AM,66.2,48.2,52,30.04,0.9,Calm,Calm,-,N/A,,Smoke,0,2013-11-02 18:30:00
1:00 AM,64.4,48.2,56,30.01,0.9,Variable,1.2,-,N/A,,Smoke,0,2013-11-02 19:30:00
2:00 AM,62.6,46.4,55,30.01,0.9,Calm,Calm,-,N/A,,Smoke,0,2013-11-02 20:30:00
2:30 AM,67,52,49,29.97,1,Calm,Calm,,,,Smoke,,2013-11-02 21:00:00
3:00 AM,62.6,48.2,59,30.01,0.9,Calm,Calm,-,N/A,,Smoke,0,2013-11-02 21:30:00
4:00 AM,60.8,48.2,63,30.01,0.9,Calm,Calm,-,N/A,,Smoke,0,2013-11-02 22:30:00
5:00 AM,59.0,46.4,63,30.01,0.9,Calm,Calm,-,N/A,,Smoke,0,2013-11-02 23:30:00
5:30 AM,61,48,53,29.99,1,Calm,Calm,,,,Smoke,,2013-11-03 00:00:00
6:00 AM,57.2,48.2,72,30.04,0.9,Calm,Calm,-,N/A,,Smoke,0,2013-11-03 00:30:00
7:00 AM,59.0,48.2,67,30.04,0.9,Calm,Calm,-,N/A,,Smoke,0,2013-11-03 01:30:00
8:00 AM,62.6,50.0,63,30.06,0.9,Calm,Calm,-,N/A,,Smoke,0,2013-11-03 02:30:00
8:30 AM,68,52,45,30.08,1,Calm,Calm,,,,Smoke,,2013-11-03 03:00:00
9:00 AM,73.4,48.2,41,30.09,1.2,Calm,Calm,-,N/A,,Smoke,0,2013-11-03 03:30:00
9:30 AM,75.2,44.6,34,30.12,1.2,East,4.6,-,N/A,,Smoke,90,2013-11-03 04:00:00
10:00 AM,77.0,46.4,34,30.12,1.2,East,5.8,-,N/A,,Smoke,80,2013-11-03 04:30:00
11:30 AM,81,43,16,30.02,1,WSW,4.6,,,,Smoke,250,2013-11-03 06:00:00
12:00 PM,80.6,42.8,26,30.06,1.9,Variable,3.5,-,N/A,,Smoke,0,2013-11-03 06:30:00
1:00 PM,84.2,41.0,22,30.04,1.9,Variable,3.5,-,N/A,,Smoke,0,2013-11-03 07:30:00
1:30 PM,82.4,41.0,23,30.04,1.9,Variable,2.3,-,N/A,,Smoke,0,2013-11-03 08:00:00
2:00 PM,84.2,41.0,22,30.04,1.9,Calm,Calm,-,N/A,,Smoke,0,2013-11-03 08:30:00
2:30 PM,83,40,13,29.95,1,SSW,3.5,,,,Smoke,200,2013-11-03 09:00:00
3:00 PM,84.2,32.0,15,30.01,1.9,Variable,2.3,-,N/A,,Smoke,0,2013-11-03 09:30:00
4:00 PM,84.2,30.2,14,30.01,1.9,Variable,1.2,-,N/A,,Smoke,0,2013-11-03 10:30:00
5:00 PM,82.4,33.8,17,30.01,1.9,Calm,Calm,-,N/A,,Smoke,0,2013-11-03 11:30:00
5:30 PM,78,43,18,29.95,1,Calm,Calm,,,,Smoke,,2013-11-03 12:00:00
5:30 PM,78.8,39.2,24,30.01,1.9,Calm,Calm,-,N/A,,Smoke,0,2013-11-03 12:00:00
6:00 PM,77.0,42.8,29,30.01,1.9,Calm,Calm,-,N/A,,Smoke,0,2013-11-03 12:30:00
7:00 PM,71.6,44.6,38,30.04,1.1,Calm,Calm,-,N/A,,Smoke,0,2013-11-03 13:30:00
7:30 PM,73.4,44.6,36,30.04,1.1,Variable,2.3,-,N/A,,Smoke,0,2013-11-03 14:00:00
9:00 PM,69.8,44.6,40,30.06,0.7,Variable,3.5,-,N/A,,Smoke,0,2013-11-03 15:30:00
10:00 PM,66.2,44.6,46,30.09,0.7,Variable,2.3,-,N/A,,Smoke,0,2013-11-03 16:30:00
10:30 PM,68.0,44.6,43,30.09,0.7,Variable,2.3,-,N/A,,Smoke,0,2013-11-03 17:00:00
11:00 PM,66.2,44.6,46,30.09,0.7,Variable,2.3,-,N/A,,Smoke,0,2013-11-03 17:30:00
11:30 PM,66,44,33,30.04,1,Calm,Calm,,,,Smoke,,2013-11-03 18:00:00
11:30 PM,66.2,42.8,43,30.06,0.9,Calm,Calm,-,N/A,,Smoke,0,2013-11-03 18:00:00